Showing default

HULIANWANG DIGUI-151, 67527

Orbit data source: Space-Track

HULIANWANG DIGUI-151, 67527 is a payload satellite owned by Zhongguo Xingwang (CN) in LEO that was launched on Mon, 19 Jan 2026 UTC via a CHANG ZHENG 12 launch vehicle from the Wenchang Satellite Launch Center (WSC). Payload-class satellites include a variety of spacecraft equipped with specific instruments for various scientific and technological missions. These include communications satellites like Starlink; space stations such as the ISS; scientific satellites like the Hubble; Earth observation satellites from companies like Planet Labs, Umbra, and HawkEye 360; GPS; miniature CubeSats for education and research; and military/defense satellites.

Loading next visibility...
Identifier
67527, 2026-013F
Orbit
LEO
Country
Flag of CNCN / PRC
Related business
Manufacturer
YINNT
Mission
Operational Civil Communications
Bus & Motor
XINGWANG Y, Unknown motor
Mass
~800 kg wet, ~800 kg dry
Launch date (UTC)
2026-01-19 (5 months ago)
Launch vehicle
CHANG ZHENG 12
Launch site
Wenchang Satellite Launch Center (WSC)
Object type
Payload
Rocket body
Debris
Shape & HBR
Box + 2 Pan, 2.8 m
Radar Cross Section
5.935 m², Large (>1 m²)

Expand to show TLE details & history
Last TLE update: 6 hours ago

TLE from 6 hours ago
0 HULIANWANG DIGUI-151
1 67527U 26013F   26163.84035346 -.00000078  00000-0  99795-4 0  9999
2 67527  50.0101  11.2045 0001106  97.9215 262.1783 13.29329865 19478
Epoch: 2026-06-12T20:10Z
TLE epoch observation values (Epoch: 2026-06-12T20:10:06.538Z)
Latitude
-0.00002°
Longitude
167.51322°
Altitude
1,149.912 km
Speed
7.279 km/s
True Right ascension
00h 44m 49s
True Declination
0° 00' 00"
Sunlit
Object was in daylight at epoch
Visualization orbit readout
Latitude
Unknown
Longitude
Unknown
Altitude
Unknown
Speed
Unknown
Apparent Right ascension
Unknown
Apparent Declination
Unknown
Sunlit
N/A
Visualization observer readout
Local Sidereal Time
12:49:15
Azimuth
Unknown
Elevation
Unknown
Doppler factor
Unknown
Orbital elements
Apogee altitude
1,150.828 km
Perigee altitude
1,149.163 km
Semi-major axis
7,528.133 km
Eccentricity
0.00011
Inclination
50.0101°
RAAN
11.2045°
Arg. of periapsis
97.9215°
True anomaly
262.16574°
Mean anomaly
262.1783°
Eccentric anomaly
262.17202°
Mean motion
3.32286 °/min
Orbital period
108.34 mins
BSTAR
0.000099795
Loading maneuver chart data...
Computing Atmospheric mass density...
Loading historical data...
Loading historical data...
Loading historical data...
Loading historical data...
Loading historical data...
Loading historical data...
Loading historical data...

Documentation

Showing up to 5 results
|